PAT56 KRDU-KGAI

Flight info

Callsign PAT56
Flight time N/A
Altitude 29000
Route OXFRD5 OXFRD HARVY LORAA TRSTN4
Aircraft CJ3/M-SDE2E3FGHRWXY/LB1

Departure

Time 2026-05-03 23:26
Airport Raleigh-Durham International Airport (KRDU)

Arrival

Time N/A
Airport Montgomery County Airpark (KGAI)
Time Latitude Longitude Altitude Speed Heading
2026-05-03 23:15 35.88005 -78.78392 430 ft 0 kts 226°
2026-05-03 23:22 35.87999 -78.78400 430 ft 5 kts 226°
2026-05-03 23:22 35.87965 -78.78423 427 ft 7 kts 184°
2026-05-03 23:23 35.87922 -78.78390 426 ft 9 kts 144°
2026-05-03 23:23 35.87859 -78.78384 422 ft 11 kts 192°
2026-05-03 23:23 35.87826 -78.78361 424 ft 10 kts 88°
2026-05-03 23:23 35.87881 -78.78283 426 ft 14 kts 44°
2026-05-03 23:24 35.87975 -78.78163 425 ft 16 kts 45°
2026-05-03 23:24 35.87999 -78.78069 425 ft 11 kts 134°
2026-05-03 23:24 35.87979 -78.78037 427 ft 4 kts 126°
2026-05-03 23:24 35.87970 -78.78023 431 ft 0 kts 133°
2026-05-03 23:25 35.87969 -78.78022 431 ft 2 kts 133°
2026-05-03 23:26 35.87940 -78.77987 433 ft 9 kts 136°
2026-05-03 23:26 35.87841 -78.78034 428 ft 42 kts 225°
2026-05-03 23:26 35.87311 -78.78658 521 ft 154 kts 225°
2026-05-03 23:26 35.86436 -78.79702 1415 ft 195 kts 225°
2026-05-03 23:27 35.85335 -78.81046 2097 ft 249 kts 225°
2026-05-03 23:27 35.84495 -78.82087 2553 ft 269 kts 225°
2026-05-03 23:27 35.83135 -78.83810 3218 ft 290 kts 225°
2026-05-03 23:27 35.81692 -78.85645 3899 ft 306 kts 223°
2026-05-03 23:28 35.79670 -78.88198 4759 ft 320 kts 224°
2026-05-03 23:28 35.78515 -78.90449 5340 ft 301 kts 249°
2026-05-03 23:28 35.78280 -78.92122 5656 ft 289 kts 263°
2026-05-03 23:28 35.78398 -78.94519 6712 ft 277 kts 279°
2026-05-03 23:29 35.79274 -78.96599 7462 ft 284 kts 309°
2026-05-03 23:29 35.80929 -78.97901 8255 ft 288 kts 338°
2026-05-03 23:29 35.82900 -78.98428 8911 ft 293 kts 348°
2026-05-03 23:29 35.84941 -78.98652 9440 ft 300 kts
2026-05-03 23:30 35.86921 -78.97809 10081 ft 303 kts 25°
2026-05-03 23:30 35.88845 -78.96561 10205 ft 324 kts 26°
2026-05-03 23:30 35.90854 -78.95205 10588 ft 329 kts 27°
2026-05-03 23:30 35.92850 -78.93813 11120 ft 330 kts 27°
2026-05-03 23:31 35.94824 -78.92442 11639 ft 331 kts 27°
2026-05-03 23:31 35.96827 -78.91042 12152 ft 332 kts 28°
2026-05-03 23:31 35.98837 -78.89628 12659 ft 332 kts 27°
2026-05-03 23:31 36.00853 -78.88217 13109 ft 335 kts 27°
2026-05-03 23:32 36.02891 -78.86780 13483 ft 340 kts 27°
2026-05-03 23:32 36.04952 -78.85332 13930 ft 341 kts 27°
2026-05-03 23:32 36.06993 -78.83841 14412 ft 339 kts 29°
2026-05-03 23:32 36.08988 -78.82289 14885 ft 340 kts 30°
2026-05-03 23:33 36.10960 -78.80729 15356 ft 342 kts 30°
2026-05-03 23:33 36.12954 -78.79147 15821 ft 341 kts 31°
2026-05-03 23:33 36.14938 -78.77538 16288 ft 341 kts 31°
2026-05-03 23:33 36.16944 -78.75933 16764 ft 343 kts 30°
2026-05-03 23:34 36.18952 -78.74333 17222 ft 344 kts 30°
2026-05-03 23:34 36.20972 -78.72736 17682 ft 346 kts 31°
2026-05-03 23:34 36.22986 -78.71113 18145 ft 346 kts 30°
2026-05-03 23:34 36.25004 -78.69508 18600 ft 345 kts 30°
2026-05-03 23:35 36.26994 -78.67909 19047 ft 345 kts 30°
2026-05-03 23:35 36.29012 -78.66288 19496 ft 346 kts 30°
2026-05-03 23:35 36.31026 -78.64657 19940 ft 347 kts 30°
2026-05-03 23:35 36.33046 -78.63016 20380 ft 347 kts 30°
2026-05-03 23:36 36.35067 -78.61370 20822 ft 348 kts 30°
2026-05-03 23:36 36.37106 -78.59715 21011 ft 356 kts 30°
2026-05-03 23:36 36.39282 -78.58172 21001 ft 364 kts 18°
2026-05-03 23:36 36.41743 -78.57358 21002 ft 369 kts
2026-05-03 23:37 36.44258 -78.56761 21013 ft 377 kts
2026-05-03 23:37 36.46860 -78.56210 21088 ft 381 kts
2026-05-03 23:37 36.49480 -78.55674 21292 ft 382 kts
2026-05-03 23:37 36.52098 -78.55150 21456 ft 383 kts
2026-05-03 23:38 36.54741 -78.54612 21627 ft 384 kts
2026-05-03 23:38 36.57381 -78.54079 21783 ft 385 kts
2026-05-03 23:38 36.60026 -78.53537 21933 ft 386 kts
2026-05-03 23:38 36.62511 -78.53031 22074 ft 387 kts
2026-05-03 23:39 35.88005 -78.78392 22074 ft 3 kts 226°